Regional Weather Roundup
Issued by NWS

Home | Current Version | Previous Version | Graphics & Text | Print | Product List | Glossary On
Versions: 1 2 3 4 5 6 7 8 9 10 11 12 13 14 15 16 17 18 19 20 21 22 23 24 25 26 27 28 29 30 31 32 33 34 35 36 37 38 39 40 41 42 43 44 45 46 47 48 49 50
000
ASUS43 KTOP 292059
RWRKS

WEATHER ROUNDUP FOR KANSAS
NATIONAL WEATHER SERVICE GOODLAND KS
400 PM CDT MON JUN 29 2015

NOTE:  "FAIR" INDICATES FEW OR NO CLOUDS BELOW 12,000 FEET WITH NO
SIGNIFICANT WEATHER AND/OR OBSTRUCTIONS TO VISIBILITY.

KSZ001>006-013>018-027>032-041>047-292200-
NORTHWEST KANSAS

CITY           SKY/WX    TMP DP  RH WIND       PRES   REMARKS
GOODLAND       PTSUNNY   83  49  30 S12       30.11S
HAYS           SUNNY     93  54  26 N9        30.00F
HILL CITY      SUNNY     96  51  21 N10       30.01F
RUSSELL        SUNNY     94  50  22 N8        29.98F
$$

KSZ061>065-074>080-084>089-292200-
SOUTHWEST KANSAS

CITY           SKY/WX    TMP DP  RH WIND       PRES   REMARKS
DODGE CITY     MOSUNNY   93  51  23 VRB6      30.05F
ELKHART          N/A     87  53  31 SW5         N/A
GARDEN CITY    PTSUNNY   87  54  32 SW10      30.07F
GREAT BEND     SUNNY     93  54  26 NW8       29.99F
LIBERAL        CLOUDY    88  57  35 E5        30.10F
$$

KSZ066>073-081>083-090>101-292200-
SOUTHEAST KANSAS

CITY           SKY/WX    TMP DP  RH WIND       PRES   REMARKS
CHANUTE        MOSUNNY   86  62  44 N7        29.95F
COFFEYVILLE    SUNNY     89  61  38 VRB7      29.93F
HUTCHINSON     SUNNY     91  54  28 NW8       29.99F
MEDICINE LODGE   N/A     96  55  25 N7        29.96F
NEWTON         SUNNY     88  54  31 N7        30.02S
PARSONS        SUNNY     89  62  40 NW8G17    29.96F
WICHITA INTL   PTSUNNY   91  54  28 N6        29.98S
WICHITA JABRA  SUNNY     89  57  33 NW13      29.98S
WINFIELD       SUNNY     89  56  32 N7        29.98F
$$

KSZ007>012-019>026-033>040-048>060-102>105-292200-
NORTHEAST KANSAS

CITY           SKY/WX    TMP DP  RH WIND       PRES   REMARKS
CONCORDIA      SUNNY     86  58  38 NW5       29.98F
EMPORIA        MOSUNNY   87  60  40 NW7       29.96F
LAWRENCE       MOSUNNY   86  61  42 NW14G21   29.93F
MANHATTAN      SUNNY     90  58  33 W8        29.95F
OLATHE IND     MOSUNNY   84  63  49 W10       29.95F
OLATHE EXE     PTSUNNY   83  62  49 W9        29.93F
SALINA         SUNNY     92  55  28 NW3       29.97F
TOPEKA BILLARD MOSUNNY   87  61  41 W10       29.94F
TOPEKA FORBES  MOSUNNY   87  60  40 NW10      29.95F
$$



USA.gov is the U.S. government's official web portal to all federal, state and local government web resources and services.